Location: Alberuela de la Liana
(42.1631°N, 0.0316°W)
Time: 06:49:07
(UTC+00:00)

Daily predictions for brighter satellites

Satellite Brightness Start Highest point End
(mag) Time Altitude Azimuth Time Altitude Azimuth Time Altitude Azimuth
Cosmos 1655 Rocket 4.5 17:16:15 10° NNW 17:22:39 73° W 17:29:00 10° S
Cosmos 1908 4.0 17:20:53 10° SSW 17:24:40 57° W 17:28:30 10° N
Cosmos 1809 Rocket 4.5 17:18:36 10° N 17:24:46 79° E 17:30:51 10° SSE
H-2A R/B 3.8 17:23:43 10° E 17:26:11 13° ENE 17:28:38 10° NNE
CZ-4 R/B 3.0 17:26:14 10° E 17:28:22 14° ENE 17:30:27 10° NNE
Atlas Centaur 2 4.4 17:22:38 10° SW 17:29:12 27° SSE 17:35:57 10° ESE
Cosmos 2227 Rocket 3.2 17:24:32 10° N 17:29:17 26° NE 17:33:59 10° ESE
Cosmos 2266 Rocket 4.2 17:23:58 10° N 17:30:14 81° W 17:36:34 10° S
Cosmos 1892 4.3 17:29:33 10° NNE 17:31:56 16° ENE 17:34:19 10° ESE
NOAA 12 4.2 17:31:45 10° SSE 17:37:02 86° WSW 17:42:23 10° NNW
Cosmos 1300 2.6 17:37:19 10° S 17:41:05 66° E 17:44:54 10° NNE
Cosmos 1953 Rocket 3.6 17:38:41 10° N 17:43:03 59° E 17:47:26 10° SSE
Cosmos 1697 Rocket 3.8 17:40:05 10° SSE 17:44:16 22° E 17:48:28 10° NE
Cosmos 2058 Rocket 3.4 17:40:09 10° SSE 17:44:23 43° E 17:48:40 10° NNE
Cosmos 1331 Rocket 4.2 17:39:41 10° SSW 17:44:50 74° WNW 17:50:01 10° NNE
SL-4 R/B 3.7 17:43:45 10° NW 17:46:17 18° N 17:48:55 10° NE
IRS-1C Rocket 4.3 17:41:51 10° SE 17:46:53 49° ENE 17:51:58 10° N
CZ-2D R/B 4.1 17:43:46 10° SE 17:47:05 29° ENE 17:50:24 10° N
SeaSat 1 4.3 17:46:27 11° ENE 17:48:19 13° NE 17:50:31 10° NNE
USA 305 4.4 17:47:21 10° NW 17:50:46 22° NNE 17:53:27 13° ENE
Cosmos 1346 Rocket 4.2 17:47:58 10° NNE 17:50:52 19° ENE 17:53:44 10° ESE
Cosmos 44 3.5 17:48:02 10° SW 17:52:28 67° NW 17:57:13 10° NNE
Cosmos 1315 Rocket 4.2 17:51:22 10° SE 17:54:04 18° E 17:56:19 12° NE
NOAA 11 4.2 17:48:52 10° SSE 17:54:19 84° ENE 17:59:46 10° NNW
USA 306 4.4 17:53:45 10° NW 17:57:13 23° NNE 17:59:35 15° ENE
BREEZE-M R/B 4.3 17:57:02 10° WNW 18:00:33 35° NNE 18:05:18 15° ENE
SAR-Lupe-4 3.5 17:57:15 10° NNE 18:00:51 89° ESE 18:04:25 10° SSW
ERS-2 3.3 17:57:24 10° N 18:00:54 46° WNW 18:04:23 10° SW
ATLAS 2AS CENTAUR R/B 4.4 17:56:09 10° NNW 18:01:19 19° NNE 18:05:17 13° ENE
Cosmos 968 Rocket 3.9 18:00:08 10° N 18:05:03 39° ENE 18:09:53 10° SE
Cosmos 1340 2.7 18:02:12 10° N 18:05:56 55° ENE 18:09:38 10° SSE
Cosmos 1980 Rocket 3.5 18:03:26 10° SE 18:07:02 18° E 18:07:19 18° E
Cosmos 2297 Rocket 2.2 18:03:50 10° NNW 18:09:29 62° ENE 18:15:04 10° SE
COSMO-SKYMED 1 2.5 18:05:21 10° NNE 18:09:43 80° ESE 18:14:03 10° S
Aureole 3 Rocket 3.0 18:06:13 10° S 18:09:58 80° E 18:15:09 10° N
MOS 1 Rocket 4.2 18:06:21 10° NE 18:10:26 28° E 18:14:42 10° SSE
In-Cosmos 22 Rocket 4.1 18:06:51 10° N 18:12:12 64° ENE 18:17:38 10° SSE
S3M 4.2 18:08:06 10° SSE 18:13:52 45° E 18:19:40 10° NNE
Cosmos 1302 Rocket 4.2 18:10:34 10° SSW 18:15:49 77° WNW 18:21:08 10° NNE
Okean O Rocket 4.0 18:17:04 10° SSW 18:20:42 25° W 18:24:21 10° NW
Lacrosse 5 4.0 18:17:55 10° NW 18:20:45 15° N 18:23:30 10° NNE
SL-08 ROCKET BODY 4.4 18:15:56 10° N 18:21:58 59° E 18:28:03 10° SSE
YAOGAN 1 2.7 18:17:55 10° SSE 18:22:05 49° ENE 18:26:16 10° N
Aureole 3 3.4 18:20:37 10° SSW 18:23:47 54° W 18:26:43 10° N
Cosmos 1417 Rocket 4.4 18:18:40 10° S 18:24:51 71° E 18:31:09 10° NNE
Cosmos 1486 Rocket 4.0 18:20:20 10° NNW 18:25:39 63° ENE 18:30:54 10° SSE
Milstar 3 4.1 18:21:53 10° SW 18:27:34 26° S 18:31:53 14° SE
Cosmos 1812 Rocket 4.0 18:24:48 10° SSE 18:28:49 36° E 18:30:36 25° NE
Cosmos 1455 2.3 18:26:00 10° SSE 18:29:36 45° E 18:31:13 27° NE
CZ-2C R/B 3.2 18:26:21 10° SSE 18:32:06 65° ENE 18:37:42 10° N
Cosmos 44 Rocket 3.8 18:31:01 10° S 18:35:17 34° ESE 18:35:27 34° ESE
Cosmos 1503 Rocket 4.3 18:30:25 10° N 18:35:25 43° ENE 18:37:12 32° ESE
Cosmos 2278 4.3 18:31:14 10° SSE 18:36:14 33° ESE 18:36:46 32° E
NOAA 15 4.5 18:33:29 10° SSE 18:38:47 78° ENE 18:44:07 10° N
Cosmos 1939 Rocket 4.0 18:35:06 10° S 18:38:55 45° W 18:42:42 10° NNW
CZ-4B R/B 4.4 18:37:26 10° NNW 18:39:17 15° WNW 18:41:06 10° WSW
Cosmos 2219 3.5 18:34:05 10° NNW 18:39:50 72° WSW 18:45:33 10° SSE
USA 307 3.7 18:36:36 10° NW 18:40:31 34° NNE 18:40:52 33° NE
DMSP B5D1-3 4.5 18:35:54 10° NNE 18:41:00 61° E 18:46:06 10° S
Meteor 2-10 Rocket 3.4 18:37:31 10° S 18:42:52 83° E 18:48:03 10° NNE
Cosmos 1553 Rocket 4.2 18:36:58 10° SSW 18:43:19 75° W 18:49:38 10° N
USA 308 3.6 18:41:25 10° NW 18:45:23 36° NNE 18:45:31 36° NNE
Helios 1A Rocket 3.5 18:42:17 10° S 18:46:20 58° WSW 18:50:24 10° NNW
Cosmos 1354 Rocket 4.2 18:41:54 10° N 18:47:00 48° ENE 18:47:53 43° E
Cosmos 2082 3.7 18:42:52 10° NNW 18:48:34 59° ENE 18:50:45 36° SE
Meteor 2-15 Rocket 4.3 18:45:04 10° S 18:51:12 80° E 18:57:23 10° N
Okean-O 3.2 18:49:46 10° S 18:54:07 57° W 18:58:30 10° NNW
Cosmos 1992 Rocket 3.9 18:49:36 10° SSW 18:54:49 86° WNW 18:59:48 11° NNE
ARGOS 3.2 18:54:41 43° ESE 18:56:01 55° ENE 19:01:19 10° N
Cosmos 2369 3.6 18:54:00 10° SSW 18:59:43 80° ESE 19:03:11 25° NNE
OAO 2 Rocket 4.1 18:55:34 10° WSW 19:00:04 35° S 19:00:33 35° SSE
CZ-4 R/B 2.4 18:59:17 10° S 19:03:01 44° W 19:06:44 10° NNW
H-2A R/B 2.0 18:59:21 10° SSE 19:04:45 87° ENE 19:10:14 10° NNW
GEOS 3 Rocket 3.6 19:05:41 59° E 19:06:28 68° NE 19:11:49 10° NNW
Cosmos 2058 3.5 19:03:44 10° NNW 19:07:44 55° W 19:11:44 10° S
Cosmos 1892 4.3 19:04:11 10° NNW 19:07:46 36° W 19:11:19 10° SSW
Geosat 4.2 19:06:43 22° NNE 19:09:59 71° WNW 19:14:58 10° SW
Cosmos 1408 3.5 19:07:48 10° NNW 19:11:20 48° W 19:11:40 46° WSW
Cosmos 1745 Rocket 4.3 19:05:26 10° NNW 19:11:41 67° W 19:17:57 10° S
Cosmos 2227 Rocket 3.0 19:08:08 10° NW 19:13:34 49° WSW 19:18:59 10° S
CSL-04 Rocket 3.7 19:08:30 10° S 19:14:03 79° WSW 19:19:37 10° NNW
Atlas Centaur 2 3.8 19:10:34 10° WSW 19:18:06 36° S 19:20:08 32° SSE
Cosmos 2263 Rocket 3.6 19:14:26 10° N 19:17:16 24° NNE 19:17:16 24° NNE
Timation 1 Rocket 4.2 19:14:32 10° NNW 19:20:34 69° ENE 19:20:34 69° ENE
SeaSat 1 2.9 19:26:15 51° N 19:26:15 51° N 19:29:59 10° NNW
SL-4 R/B 4.1 19:23:22 10° NW 19:24:38 18° NNW 19:24:38 18° NNW
Cosmos 1697 Rocket 3.3 19:22:20 10° SW 19:27:48 53° WNW 19:31:25 21° N
Cosmos 1825 4.4 19:25:11 10° NNW 19:26:28 20° NNW 19:26:28 20° NNW
CZ-4C R/B 4.0 19:24:29 10° NNW 19:29:36 26° NNE 19:29:36 26° NNE
USA 305 4.3 19:27:05 10° NW 19:29:35 34° NW 19:29:35 34° NW
NOSS 3-4 (A) 4.1 19:25:12 10° NNW 19:31:39 49° NE 19:31:39 49° NE
NOSS 3-4 (C) 4.1 19:25:18 10° NNW 19:31:43 49° NE 19:31:43 49° NE
DEBRIS 4.4 19:17:38 10° WSW 19:35:33 64° NNW 19:36:49 52° NNE
USA 215 3.9 19:39:00 41° NNE 19:39:00 41° NNE 19:44:47 10° NW
Cosmos 1709 Rocket 4.2 19:35:08 10° NNW 19:41:29 70° W 19:44:29 33° SSW
Cosmos 1980 Rocket 2.8 19:44:50 10° SW 19:49:11 51° WSW 19:49:11 51° WSW
ATLAS 2AS CENTAUR R/B 3.3 19:46:53 10° NNW 19:52:43 46° N 19:52:43 46° N
Lacrosse 5 4.3 20:01:23 10° NNW 20:02:41 15° NNW 20:02:41 15° NNW
